Content
SEND FEEDBACK

Daily
Averages
Monthly
Summary
United States of America

ACHANG BAY, GUAM


Home > North America > United States > Guam
Elevation: 30 feet     Latitude: 13 16N     Longitude: 144 45E

WEATHER
 
SELECT A DAY
Number of Records: 342,554;   Date Range: 1/1/95 - 9/16/14
 
SHARE

PRINT THIS DATA

[ ← Previous Day ]
WEATHER ALMANAC - SEPTEMBER 1, 2013
[ Next Day → ]
[ °C ]   °F
Weather ElementAverageHighLow
Temperature83 °F87.8 °F (10:38 am)76.6 °F (3:58 am)
Dewpoint75.8 °F77 °F (9:43 am)74.7 °F (3:58 am)
Humidity79.2 %94 % (3:58 am)70 % (9:48 am)
Barometer29.86 in29.91 in (8:58 am)29.81 in (3:23 pm)
Wind Speed3.7 mph8.1 mph (9:43 am)
Weather ElementAverage
Visibility10 mi
Wind DirectionENE (53.7 °)

Weather ElementTotal
Precipitation---
Cooling Degree Days17.2 (Base 65)
Growing Degree Days32.2 (Base 50)
Averaged from 41 records on September 1, 2013
WEATHER CONDITIONS BREAKOUT
WIND DIRECTION BREAKOUT
WEATHER BY HOUR - SEPTEMBER 1, 2013
[ °C ]   °F
Local TimeTemperatureDewpointHumidityBarometerVisibilityWind DirectionWind SpeedGust SpeedPrecipitationEventsConditions
1:58 AM79.2 °F75.6 °F89 %29.85 in10.0 miCalmClear
2:58 AM78.1 °F75.4 °F91 %29.84 in10.0 miCalmClear
3:58 AM76.6 °F74.7 °F94 %29.84 in10.0 miCalmClear
4:58 AM77.4 °F74.8 °F92 %29.84 in10.0 miCalmClear
5:58 AM77.2 °F75.0 °F93 %29.85 in10.0 miCalmClear
6:58 AM77.9 °F75.2 °F91 %29.88 in10.0 miCalmClear
7:58 AM82.4 °F76.5 °F82 %29.90 in10.0 miCalmClear
8:58 AM83.5 °F76.6 °F80 %29.91 in10.0 miNorth (360°)5.8 mphMostly Cloudy
9:33 AM84.2 °F75.2 °F74 %29.91 in10.0 miVariable1.2 mphOvercast
9:43 AM84.2 °F77.0 °F79 %29.91 in10.0 miEast (80°)8.1 mphOvercast
9:48 AM86.0 °F75.2 °F70 %29.90 in10.0 miEast (80°)6.9 mphMostly Cloudy
9:58 AM86.2 °F76.3 °F72 %29.90 in10.0 miNE (50°)4.6 mphMostly Cloudy
10:03 AM86.0 °F77.0 °F74 %29.90 in10.0 miVariable4.6 mphScattered Clouds
10:08 AM84.2 °F75.2 °F74 %29.90 in10.0 miVariable2.3 mphMostly Cloudy
10:38 AM87.8 °F77.0 °F70 %29.89 in10.0 miEast (100°)5.8 mphScattered Clouds
10:43 AM86.0 °F77.0 °F74 %29.89 in10.0 miEast (100°)6.9 mphMostly Cloudy
10:58 AM85.5 °F76.1 °F73 %29.89 in10.0 miENE (70°)5.8 mphMostly Cloudy
11:38 AM86.0 °F75.2 °F70 %29.88 in10.0 miEast (90°)5.8 mphScattered Clouds
11:58 AM87.1 °F76.5 °F71 %29.87 in10.0 miENE (70°)8.1 mphPartly Cloudy
12:23 PM86.0 °F75.2 °F70 %29.86 in10.0 miESE (110°)6.9 mphMostly Cloudy
12:58 PM85.8 °F76.6 °F74 %29.85 in10.0 miENE (70°)3.5 mphOvercast
1:58 PM86.4 °F75.7 °F70 %29.83 in10.0 miEast (100°)8.1 mphMostly Cloudy
2:08 PM86.0 °F75.2 °F70 %29.82 in10.0 miEast (100°)6.9 mphScattered Clouds
2:53 PM86.0 °F75.2 °F70 %29.82 in10.0 miEast (80°)8.1 mphMostly Cloudy
2:58 PM85.5 °F75.6 °F72 %29.82 in10.0 miVariable5.8 mphMostly Cloudy
3:23 PM84.2 °F75.2 °F74 %29.81 in10.0 miNE (50°)6.9 mphMostly Cloudy
3:33 PM84.2 °F75.2 °F74 %29.82 in10.0 miEast (80°)6.9 mphMostly Cloudy
3:38 PM84.2 °F77.0 °F79 %29.81 in10.0 miEast (90°)5.8 mphMostly Cloudy
3:58 PM83.8 °F76.6 °F79 %29.82 in10.0 miENE (70°)5.8 mphMostly Cloudy
4:03 PM84.2 °F77.0 °F79 %29.81 in10.0 miENE (70°)4.6 mphMostly Cloudy
4:38 PM84.2 °F77.0 °F79 %29.81 in10.0 miEast (90°)4.6 mphScattered Clouds
4:48 PM84.2 °F75.2 °F74 %29.81 in10.0 miENE (60°)4.6 mphMostly Cloudy
4:58 PM84.2 °F74.7 °F73 %29.82 in10.0 miNorth (10°)2.3 mphMostly Cloudy
5:58 PM82.8 °F77.0 °F83 %29.83 in10.0 miSW (220°)4.6 mphOvercast
6:23 PM82.4 °F75.2 °F79 %29.83 in10.0 miCalmScattered Clouds
6:58 PM80.8 °F76.6 °F87 %29.85 in10.0 miCalmPartly Cloudy
7:58 PM79.3 °F76.1 °F90 %29.86 in10.0 miCalmClear
8:58 PM79.0 °F76.1 °F91 %29.88 in10.0 miCalmClear
9:58 PM79.2 °F75.2 °F88 %29.88 in10.0 miCalmClear
10:58 PM78.3 °F75.0 °F90 %29.88 in10.0 miCalmClear
11:58 PM78.1 °F75.4 °F91 %29.86 in10.0 miCalmClear
Hourly data recorded from PGUA, located miles away from Achang Bay, Guam







STORIES FROM OUR PARTNERS